Location: ???????
(55.4362°N, 38.1183°E)
Time: 00:53:31
(UTC+00:00)

METEOR M2 - Pass Details

Date: 28 November 2021
Orbit: 818 x 827 km, 98.4° (Epoch: 28 January)

Event Time Altitude Azimuth Distance (km) Brightness Sun altitude
Rises 14:38:56 0° 134° (SE) 3,361 ? -12.5°
Reaches altitude 10° 14:41:25 10° 127° (SE) 2,431 ? -12.8°
Maximum altitude 14:46:21 38° 61° (ENE) 1,242 ? -13.5°
Drops below altitude 10° 14:51:18 10° 355° (N) 2,442 ? -14.2°
Sets 14:53:47 0° 347° (NNW) 3,378 ? -14.5°
